Date String (YYYY-MM-DD hh:mm:ss) UTC,Instrument flags,Ambient pressure (hPa),Sample flow (lpm),Bypass flow (lpm),Sample temperature (°C),Ambient temperature (°C),ASC tube jacket temperature (°C),LED temperature (°C),Box temperature (°C),Sample RH (%),Span deviation,Mass concentration (μg/m³),Mass concentration (μg/m³),Mass concentration (μg/m³)
DateTimeUTC,F1_M11,P_M11,Q1_M11,Q2_M11,T1_M11,T2_M11,T3_M11,T4_M11,T5_M11,U1_M11,ZSPAN_M11,X2_M11,X0_M11,X1_M11
2021-08-20 10:00:00,,0824.2,5.00,0.00,30.3,29.4,00.0,39.5,32.0,24.6,0000.0,0001.89,0003.74,0001.02
2021-08-20 10:01:00,,0824.2,5.00,0.00,30.3,29.5,00.0,39.5,32.1,24.3,0000.0,0001.98,0003.98,0001.09
2021-08-20 10:02:00,,0824.4,5.00,0.00,30.3,29.5,00.0,39.5,32.1,24.3,0000.0,0002.03,0004.06,0001.16
2021-08-20 10:03:00,,0824.2,5.00,0.00,30.3,29.5,00.0,39.5,32.1,24.2,0000.0,0002.16,0004.29,0001.23
2021-08-20 10:04:00,,0824.3,5.00,0.00,30.3,29.5,00.0,39.5,32.1,24.4,0000.0,0002.24,0004.47,0001.29
2021-08-20 10:05:00,,0824.2,5.01,0.00,30.3,29.5,00.0,39.5,32.1,24.5,0000.0,0002.28,0004.43,0001.35
2021-08-20 10:06:00,,0824.3,4.99,0.00,30.4,29.5,00.0,39.5,32.1,24.5,0000.0,0002.34,0004.47,0001.42
2021-08-20 10:07:00,,0824.3,5.00,0.00,30.4,29.6,00.0,39.5,32.1,24.2,0000.0,0002.40,0004.50,0001.48
2021-08-20 10:08:00,,0824.4,4.99,0.00,30.4,29.6,00.0,39.5,32.1,24.1,0000.0,0002.40,0004.44,0001.51
2021-08-20 10:09:00,,0824.3,5.00,0.00,30.4,29.6,00.0,39.6,32.1,24.2,0000.0,0002.34,0004.33,0001.50
2021-08-20 10:10:00,,0824.3,5.00,0.00,30.4,29.5,00.0,39.6,32.1,24.0,0000.0,0002.33,0004.36,0001.49
2021-08-20 10:11:00,,0824.3,5.00,0.00,30.4,29.5,00.0,39.6,32.1,23.8,0000.0,0002.34,0004.36,0001.48
2021-08-20 10:12:00,,0824.3,5.01,0.00,30.4,29.5,00.0,39.6,32.1,23.9,0000.0,0002.25,0004.01,0001.44
2021-08-20 10:13:00,,0824.4,4.99,0.00,30.4,29.5,00.0,39.6,32.1,24.4,0000.0,0002.15,0003.79,0001.35
2021-08-20 10:14:00,,0824.4,5.00,0.00,30.3,27.7,00.0,39.5,31.6,24.8,0000.0,0002.04,0003.68,0001.27
2021-08-20 10:15:00,,0824.3,4.99,0.00,30.2,26.4,00.0,39.5,31.3,24.8,0000.0,0001.94,0003.58,0001.18
2021-08-20 10:16:00,,0824.4,5.02,0.00,30.0,26.2,00.0,39.4,31.2,24.7,0000.0,0001.86,0003.42,0001.11
2021-08-20 10:17:00,,0824.3,4.99,0.00,29.9,26.6,00.0,39.4,31.2,24.7,0000.0,0001.75,0003.27,0001.02
2021-08-20 10:18:00,,0824.4,5.02,0.00,29.8,27.0,00.0,39.3,31.3,24.3,0000.0,0001.65,0003.16,0000.92
2021-08-20 10:19:00,,0824.3,4.99,0.00,29.8,27.3,00.0,39.2,31.3,24.6,0000.0,0001.55,0003.06,0000.82
2021-08-20 10:20:00,,0824.3,5.00,0.00,29.8,27.5,00.0,39.2,31.4,24.2,0000.0,0001.47,0002.95,0000.74
2021-08-20 10:21:00,,0824.3,5.00,0.00,29.8,27.8,00.0,39.2,31.4,24.0,0000.0,0001.36,0002.84,0000.67
2021-08-20 10:22:00,,0824.2,5.00,0.00,29.8,28.0,00.0,39.1,31.4,23.8,0000.0,0001.23,0002.92,0000.60
2021-08-20 10:23:00,,0824.2,5.00,0.00,29.8,28.1,00.0,39.1,31.4,23.7,0000.0,0001.15,0002.92,0000.55
2021-08-20 10:24:00,,0824.3,5.00,0.00,29.8,28.2,00.0,39.1,31.4,23.8,0000.0,0001.09,0003.74,0000.52
2021-08-20 10:25:00,,0824.2,4.99,0.00,29.8,28.2,00.0,39.1,31.4,23.9,0000.0,0001.03,0003.58,0000.50
2021-08-20 10:26:00,,0824.2,5.01,0.00,29.8,28.3,00.0,39.1,31.4,23.3,0000.0,0000.95,0003.30,0000.48
2021-08-20 10:27:00,,0824.2,5.00,0.00,29.8,28.3,00.0,39.1,31.5,23.3,0000.0,0000.86,0003.08,0000.44
2021-08-20 10:28:00,,0824.2,5.00,0.00,29.8,28.4,00.0,39.1,31.5,23.2,0000.0,0000.81,0002.99,0000.41
2021-08-20 10:29:00,,0824.1,5.01,0.00,29.8,28.4,00.0,39.1,31.5,23.0,0000.0,0000.77,0002.92,0000.39
2021-08-20 10:30:00,,0824.1,4.99,0.00,29.8,28.4,00.0,39.0,31.5,22.4,0000.0,0000.70,0002.87,0000.37
2021-08-20 10:31:00,,0824.1,5.00,0.00,29.8,28.5,00.0,39.0,31.6,22.8,0000.0,0000.64,0002.76,0000.34
2021-08-20 10:32:00,,0824.1,5.00,0.00,29.9,28.5,00.0,39.0,31.6,22.6,0000.0,0000.62,0002.77,0000.32
2021-08-20 10:33:00,,0824.1,4.99,0.00,29.9,28.6,00.0,39.0,31.5,22.4,0000.0,0000.64,0002.48,0000.32
2021-08-20 10:34:00,,0824.1,5.00,0.00,29.9,28.6,00.0,39.0,31.6,22.6,0000.0,0000.62,0002.44,0000.30
2021-08-20 10:35:00,,0824.2,5.00,0.00,29.9,28.6,00.0,39.0,31.6,22.6,0000.0,0000.62,0001.54,0000.29
2021-08-20 10:36:00,,0824.2,5.01,0.00,29.9,28.6,00.0,39.0,31.6,22.0,0000.0,0000.63,0001.42,0000.30
2021-08-20 10:37:00,,0824.1,5.00,0.00,29.9,28.6,00.0,39.1,31.6,22.0,0000.0,0000.65,0001.46,0000.30
2021-08-20 10:38:00,,0824.1,4.99,0.00,29.9,28.6,00.0,39.1,31.6,21.9,0000.0,0000.70,0001.60,0000.32
2021-08-20 10:39:00,,0824.1,4.99,0.00,29.9,28.6,00.0,39.1,31.6,22.2,0000.0,0000.75,0001.68,0000.34
2021-08-20 10:40:00,,0824.2,5.01,0.00,29.9,28.7,00.0,39.1,31.6,22.4,0000.0,0000.78,0001.73,0000.36
2021-08-20 10:41:00,,0824.2,4.99,0.00,29.9,28.7,00.0,39.1,31.6,22.4,0000.0,0000.80,0001.67,0000.39
2021-08-20 10:42:00,,0824.2,5.00,0.00,29.9,28.7,00.0,39.1,31.6,22.5,0000.0,0000.85,0001.74,0000.42
2021-08-20 10:43:00,,0824.3,5.01,0.00,29.9,28.7,00.0,39.1,31.6,22.1,0000.0,0000.90,0001.77,0000.45
2021-08-20 10:44:00,,0824.2,4.99,0.00,29.9,28.7,00.0,39.1,31.7,22.1,0000.0,0000.90,0001.72,0000.48
2021-08-20 10:45:00,,0824.2,5.00,0.00,29.9,28.8,00.0,39.1,31.7,21.7,0000.0,0000.92,0001.74,0000.51
2021-08-20 10:46:00,,0824.2,5.00,0.00,30.0,28.8,00.0,39.1,31.7,21.8,0000.0,0000.94,0001.77,0000.54
2021-08-20 10:47:00,,0824.2,4.99,0.00,30.0,28.8,00.0,39.1,31.7,21.9,0000.0,0000.94,0001.77,0000.55
2021-08-20 10:48:00,,0824.2,5.01,0.00,30.0,28.8,00.0,39.1,31.7,21.9,0000.0,0000.99,0001.96,0000.59
2021-08-20 10:49:00,,0824.2,4.99,0.00,30.0,28.9,00.0,39.1,31.8,22.0,0000.0,0001.00,0001.93,0000.64
2021-08-20 10:50:00,,0824.2,5.00,0.00,30.0,28.9,00.0,39.1,31.8,22.2,0000.0,0001.02,0001.92,0000.68
2021-08-20 10:51:00,,0824.2,5.02,0.00,30.0,29.0,00.0,39.1,31.7,22.2,0000.0,0001.01,0001.82,0000.73
2021-08-20 10:52:00,,0824.2,4.99,0.00,30.0,29.0,00.0,39.1,31.8,22.3,0000.0,0001.05,0001.81,0000.79
2021-08-20 10:53:00,,0824.3,5.00,0.00,30.0,29.1,00.0,39.2,31.7,22.4,0000.0,0001.07,0001.80,0000.83
2021-08-20 10:54:00,,0824.3,5.01,0.00,30.0,29.1,00.0,39.2,31.8,22.4,0000.0,0001.08,0001.81,0000.88
2021-08-20 10:55:00,,0824.2,5.00,0.00,30.0,29.1,00.0,39.2,31.8,22.3,0000.0,0001.13,0001.89,0000.90
2021-08-20 10:56:00,,0824.4,4.99,0.00,30.0,29.1,00.0,39.2,31.8,22.7,0000.0,0001.13,0001.86,0000.91
2021-08-20 10:57:00,,0824.2,5.01,0.00,30.0,29.0,00.0,39.2,31.8,22.9,0000.0,0001.15,0001.93,0000.90
2021-08-20 10:58:00,,0824.3,5.01,0.00,30.1,29.0,00.0,39.2,31.8,22.8,0000.0,0001.15,0001.93,0000.88
2021-08-20 10:59:00,,0824.4,4.99,0.00,30.1,29.0,00.0,39.2,31.8,22.9,0000.0,0001.09,0001.70,0000.85
